This is the latest recevied weather packets stored in our database for station/object EB2EMZ-W. If no packets are shown the sender has not sent any weather packets the latest 10 day(s).
| Time | Temp. | Humidity | Pressure | Rain* | Wind** | Luminosity | Snow |
|---|---|---|---|---|---|---|---|
| 1788577734 | 21.11° C | 76% | 1008 hPa | 0 mm | - | - | - |
| 1788575913 | 21.11° C | 76% | 1009 hPa | 0 mm | - | - | - |
| 1788574094 | 21.11° C | 76% | 1009 hPa | 0 mm | - | - | - |
| 1788572272 | 21.11° C | 75% | 1009 hPa | 0 mm | - | - | - |
| 1788570452 | 21.67° C | 75% | 1009 hPa | 0 mm | - | - | - |
| 1788568633 | 21.67° C | 74% | 1009 hPa | 0 mm | - | - | - |
| 1788566813 | 21.67° C | 75% | 1009 hPa | 0 mm | - | - | - |
| 1788564993 | 21.67° C | 73% | 1009 hPa | 0 mm | - | - | - |
| 1788562324 | 22.22° C | 70% | 1009 hPa | 0 mm | - | - | - |
| 1788560503 | 22.78° C | 68% | 1009 hPa | 0 mm | - | - | - |
| 1788558683 | 22.78° C | 69% | 1009 hPa | 0 mm | - | - | - |
| 1788556863 | 22.78° C | 69% | 1009 hPa | 0 mm | - | - | - |
| 1788555042 | 23.33° C | 69% | 1009 hPa | 0 mm | - | - | - |
| 1788553221 | 23.33° C | 68% | 1009 hPa | 0 mm | - | - | - |
| 1788551401 | 22.78° C | 69% | 1009 hPa | 0 mm | - | - | - |
| 1788549581 | 22.78° C | 67% | 1008 hPa | 0 mm | - | - | - |
| 1788547760 | 23.33° C | 65% | 1008 hPa | 0 mm | - | - | - |
| 1788545941 | 24.44° C | 60% | 1007 hPa | 0 mm | - | - | - |
| 1788544121 | 25.56° C | 53% | 1007 hPa | 0 mm | - | - | - |
| 1788542300 | 29.44° C | 39% | 1006 hPa | 0 mm | - | - | - |
| 1788540480 | 31.67° C | 33% | 1006 hPa | 0 mm | - | - | - |
| 1788538659 | 33.89° C | 27% | 1005 hPa | 0 mm | - | - | - |
| 1788536839 | 37.78° C | 18% | 1005 hPa | 0 mm | - | - | - |
| 1788535019 | 38.33° C | 18% | 1005 hPa | 0 mm | - | - | - |
| 1788533199 | 32.22° C | 28% | 1005 hPa | 0 mm | - | - | - |
* Rain latest hour (hover to see other rain measurements)
** Current wind speed in m/s (hover to see current wind gust speed)